Date,TemperatureHighF,TemperatureAvgF,TemperatureLowF,DewpointHighF,DewpointAvgF,DewpointLowF,HumidityHigh,HumidityAvg,HumidityLow,PressureMaxIn,PressureMinIn,WindSpeedMaxMPH,WindSpeedAvgMPH,GustSpeedMaxMPH,PrecipitationSumIn
2014-1-1,32,26,18,22,18,11,85,72,61,30.44,30.26,3,0,7,0.00
2014-1-2,29,25,15,23,20,12,92,83,70,30.26,29.72,9,2,16,0.00
2014-1-3,16,12,4,13,5,-3,91,72,53,30.52,29.71,12,3,23,0.00
2014-1-4,26,10,-3,12,3,-6,90,74,48,30.57,30.35,7,0,9,0.02
2014-1-5,40,21,4,40,19,2,99,92,84,30.35,29.78,3,0,7,0.00
2014-1-6,55,35,10,55,29,-6,100,78,46,29.89,29.42,11,3,24,0.40
2014-1-7,10,5,0,-4,-9,-14,60,52,47,30.45,29.90,13,5,19,0.00
2014-1-8,20,12,6,10,2,-5,76,63,49,30.61,30.44,7,1,9,0.00
2014-1-9,31,20,12,16,13,9,90,73,48,30.70,30.55,4,0,9,0.00
2014-1-10,33,29,20,31,26,16,97,90,80,30.63,30.23,1,0,3,0.17
2014-1-11,60,45,32,60,44,31,100,99,90,30.23,29.35,7,0,16,0.96
2014-1-12,48,40,28,44,32,25,90,73,61,30.11,29.46,13,3,16,0.01
2014-1-13,52,36,24,38,31,22,98,83,57,30.17,29.92,7,0,9,0.00
2014-1-14,44,40,32,44,39,31,99,97,89,29.92,29.71,2,0,4,0.36
2014-1-15,43,35,29,42,34,28,99,98,95,30.03,29.90,3,0,5,0.01
2014-1-16,37,33,25,36,31,24,96,92,86,30.00,29.88,2,0,7,0.02
2014-1-17,40,29,20,31,26,19,98,89,66,30.02,29.91,3,0,5,0.00
2014-1-18,36,30,22,31,25,14,96,82,65,29.93,29.75,6,2,15,0.08
2014-1-19,34,25,19,24,18,13,93,76,66,29.91,29.71,7,1,10,0.00
2014-1-20,40,32,22,31,26,20,95,82,63,29.93,29.64,8,1,13,0.01
2014-1-21,30,18,11,21,13,6,90,79,58,30.03,29.88,10,2,13,0.00
2014-1-22,16,8,2,5,-4,-8,78,59,42,30.06,29.88,9,3,18,0.00
2014-1-23,19,10,-2,7,1,-6,89,67,54,30.36,30.06,9,2,12,0.00
2014-1-24,18,12,7,4,1,-2,82,62,47,30.45,30.11,9,2,15,0.00
2014-1-25,23,17,7,20,11,3,90,78,57,30.11,29.49,5,1,9,0.00
2014-1-26,22,19,6,18,8,0,96,65,48,29.96,29.55,9,2,14,0.03
2014-1-27,38,24,17,28,14,0,89,66,40,30.15,29.66,11,2,21,0.07
2014-1-28,18,13,9,4,-1,-4,71,53,42,30.43,30.15,6,1,10,0.00
2014-1-29,20,12,4,7,1,-4,86,62,38,30.35,30.17,8,1,11,0.00
2014-1-30,27,12,-3,7,2,-6,88,66,39,30.51,30.24,4,0,6,0.00
2014-1-31,34,24,10,22,16,6,84,71,50,30.28,30.15,3,0,5,0.00
2014-2-1,44,32,22,27,23,19,90,72,46,30.36,30.06,7,0,9,0.07
2014-2-2,48,35,22,38,30,21,96,82,57,30.13,29.95,4,0,5,0.01
2014-2-3,39,31,21,33,29,18,96,91,76,30.36,30.11,4,0,7,0.03
2014-2-4,32,24,12,26,19,10,93,85,69,30.51,30.26,3,0,5,0.28
2014-2-5,34,31,28,33,30,23,97,93,80,30.28,29.69,7,1,16,0.46
2014-2-6,29,22,16,23,16,13,93,80,66,30.34,30.06,10,1,19,0.04
2014-2-7,31,22,13,19,15,11,93,76,55,30.37,30.27,6,1,11,0.04
2014-2-8,27,21,11,14,9,5,85,60,42,30.38,30.20,2,0,8,0.00
2014-2-9,28,20,11,21,14,8,93,79,52,30.24,30.05,3,0,7,0.01
2014-2-10,28,19,5,19,11,2,92,70,48,30.33,30.05,9,1,13,0.00
2014-2-11,25,12,-3,10,3,-6,93,68,45,30.53,30.33,7,1,12,0.00
2014-2-12,23,15,0,16,6,-4,90,68,48,30.61,30.31,5,1,10,0.00
2014-2-13,34,30,20,32,28,17,96,93,84,30.31,29.13,14,3,18,0.00
2014-2-14,40,33,24,30,27,22,96,81,62,29.81,29.13,10,2,16,0.18
2014-2-15,36,30,23,30,26,15,95,84,65,29.84,29.64,8,2,17,0.04
2014-2-16,26,22,17,15,12,9,72,65,55,30.18,29.85,9,2,15,0.01
2014-2-17,32,20,10,13,8,4,83,61,35,30.45,30.19,6,1,13,0.04
2014-2-18,38,28,17,31,23,11,95,83,59,30.35,30.01,11,1,19,0.25
2014-2-19,42,31,17,38,28,16,97,91,72,30.13,29.73,5,0,11,0.36
2014-2-20,48,38,22,35,28,21,97,71,44,30.30,30.04,8,1,10,0.01
2014-2-21,43,36,28,43,36,27,99,97,89,30.04,29.68,9,1,13,0.40
2014-2-22,53,36,24,37,26,23,99,75,34,30.09,29.95,9,1,14,0.00
2014-2-23,51,38,25,34,29,24,97,73,45,30.06,29.88,6,1,13,0.01
2014-2-24,41,33,25,29,19,13,73,56,41,30.12,29.87,11,3,17,0.00
2014-2-25,31,24,16,18,14,12,84,65,52,30.13,29.98,8,2,14,0.00
2014-2-26,29,22,10,22,10,1,89,63,34,30.01,29.87,9,1,19,0.02
2014-2-27,30,17,4,14,4,-8,87,60,35,30.17,29.68,12,3,19,0.00
2014-2-28,21,12,5,3,-3,-10,77,49,36,30.47,30.18,6,1,8,0.00
2014-3-1,35,22,6,22,10,1,85,63,41,30.47,30.19,5,0,7,0.00
2014-3-2,40,32,25,30,24,17,94,74,59,30.19,30.02,5,0,9,0.00
2014-3-3,28,19,13,18,6,0,82,58,49,30.38,30.06,11,2,17,0.00
2014-3-4,28,18,8,14,5,-1,72,56,39,30.46,30.29,5,0,8,0.00
2014-3-5,37,28,18,15,13,10,81,56,34,30.48,30.24,8,1,13,0.00
2014-3-6,30,22,14,14,6,-1,73,50,34,30.67,30.48,11,2,13,0.00
2014-3-7,39,31,20,29,23,13,82,72,64,30.50,29.96,8,1,11,0.00
2014-3-8,52,41,28,36,32,27,94,70,48,29.95,29.83,9,1,13,0.00
2014-3-9,42,38,35,32,23,17,77,56,39,30.07,29.93,9,2,19,0.00
2014-3-10,50,40,32,32,27,20,88,61,48,29.98,29.65,7,1,7,0.00
2014-3-11,62,44,29,41,35,28,96,75,45,29.73,29.61,6,1,12,0.00
2014-3-12,56,43,28,48,39,21,97,85,69,29.70,29.04,15,1,18,0.23
2014-3-13,28,22,17,20,6,0,74,52,35,30.13,29.30,16,5,24,0.00
2014-3-14,46,30,13,28,15,0,79,54,34,30.26,29.92,8,1,13,0.00
2014-3-15,56,45,35,38,30,25,82,57,35,30.05,29.79,10,2,19,0.00
2014-3-16,41,32,28,26,14,5,63,46,35,30.23,30.05,10,3,22,0.00
2014-3-17,32,28,22,11,7,0,48,41,32,30.17,30.07,12,2,14,0.00
2014-3-18,43,32,21,22,14,8,81,50,28,30.32,30.15,10,2,14,0.00
2014-3-19,40,34,23,39,31,20,97,88,78,30.32,29.86,10,2,18,0.73
2014-3-20,51,43,38,42,33,24,98,70,42,29.96,29.78,11,3,17,0.01
2014-3-21,51,41,29,27,24,21,81,52,32,30.08,29.95,12,2,15,0.00
2014-3-22,62,46,28,39,30,23,86,58,31,30.06,29.80,16,2,18,0.00
2014-3-23,41,36,25,29,20,10,78,53,35,30.19,30.02,8,2,18,0.00
2014-3-24,33,26,18,11,8,5,65,48,33,30.31,30.15,12,2,16,0.00
2014-3-25,38,28,14,23,16,10,87,62,42,30.20,29.90,8,1,11,0.00
2014-3-26,34,30,24,23,14,7,78,53,35,30.29,29.83,21,4,27,0.00
2014-3-27,44,31,18,21,12,7,66,46,28,30.46,30.28,8,1,13,0.00
2014-3-28,58,42,29,52,38,21,97,85,60,30.28,29.99,6,0,13,0.08
2014-3-29,48,44,38,45,42,37,98,94,80,30.19,29.69,9,2,15,1.15
2014-3-30,46,43,38,46,41,35,98,93,87,29.73,29.50,12,3,24,0.57
2014-3-31,54,43,36,38,34,31,90,70,49,30.11,29.73,13,4,22,0.02
2014-4-1,60,44,28,38,33,26,95,67,41,30.18,29.99,7,1,11,0.00
2014-4-2,55,43,35,47,40,33,95,88,72,30.18,30.07,4,0,6,0.04
2014-4-3,65,52,37,45,32,18,98,54,16,30.17,29.98,6,1,8,0.06
2014-4-4,44,41,39,42,39,38,96,94,92,30.09,29.77,12,2,19,0.22
2014-4-5,51,44,36,42,35,26,98,74,49,30.12,29.76,16,2,22,0.01
2014-4-6,60,44,28,29,25,20,84,51,22,30.25,30.12,7,1,10,0.00
2014-4-7,50,41,30,45,36,27,97,83,53,30.24,29.69,13,2,16,0.26
2014-4-8,61,52,46,57,44,36,100,77,50,29.70,29.45,10,2,19,0.13
2014-4-9,60,47,32,40,33,28,97,61,31,30.06,29.67,13,2,20,0.00
2014-4-10,66,49,28,39,32,24,89,56,34,30.24,30.05,6,1,16,0.00
2014-4-11,75,56,42,53,45,36,94,69,35,30.05,29.95,6,1,17,0.01
2014-4-12,72,57,41,52,43,38,98,64,29,30.26,30.04,5,1,10,0.01
2014-4-13,81,62,43,59,50,37,86,67,41,30.21,29.97,7,1,17,0.00
2014-4-14,77,69,53,60,57,52,98,67,49,30.02,29.84,9,2,19,0.00
2014-4-15,66,55,34,63,53,32,98,92,78,29.95,29.51,15,2,18,1.54
2014-4-16,46,36,28,32,23,18,92,59,36,30.59,29.96,12,3,18,0.00
2014-4-17,50,39,27,32,27,21,86,64,41,30.74,30.60,11,2,14,0.00
2014-4-18,52,40,29,35,32,27,96,72,47,30.65,30.30,8,1,10,0.00
2014-4-19,66,51,34,41,32,24,95,54,23,30.37,30.25,10,2,13,0.00
2014-4-20,59,48,36,35,30,25,74,51,34,30.50,30.36,13,2,15,0.00
2014-4-21,70,50,29,35,27,18,89,49,16,30.36,29.90,5,0,8,0.00
2014-4-22,72,55,40,56,46,36,95,76,45,29.90,29.54,6,1,14,0.01
2014-4-23,59,51,43,50,38,30,76,62,47,29.91,29.55,12,4,26,0.00
2014-4-24,60,49,39,30,22,13,61,36,17,30.06,29.90,12,3,22,0.00
2014-4-25,67,51,34,45,30,20,93,49,23,30.07,29.79,11,2,15,0.19
2014-4-26,67,54,44,55,46,38,97,77,44,29.92,29.71,8,1,19,0.36
2014-4-27,60,50,39,40,36,34,86,60,43,30.16,29.93,10,2,15,0.00
2014-4-28,64,52,35,43,37,33,91,60,36,30.16,30.02,6,1,10,0.00
2014-4-29,52,46,41,42,40,38,93,82,64,30.40,30.10,15,4,24,0.21
2014-4-30,52,45,40,51,44,39,97,96,93,30.40,29.95,16,4,25,3.61
2014-5-1,77,62,51,62,54,47,100,80,45,29.94,29.69,7,1,11,0.28
2014-5-2,66,58,47,49,43,38,89,59,40,29.88,29.75,8,2,13,0.00
2014-5-3,67,54,40,52,44,38,97,74,44,29.91,29.76,6,1,12,0.07
2014-5-4,61,54,43,48,41,32,98,65,40,29.86,29.72,11,2,20,0.00
2014-5-5,67,56,46,39,33,21,71,45,21,29.96,29.86,9,2,15,0.00
2014-5-6,70,56,42,40,35,28,79,49,27,30.10,29.90,9,1,16,0.00
2014-5-7,70,54,36,49,38,33,90,59,32,30.26,30.11,6,1,6,0.01
2014-5-8,63,55,50,58,53,48,98,93,84,30.21,30.08,3,0,10,0.22
2014-5-9,65,59,55,61,58,53,98,94,87,30.19,29.99,6,1,9,0.00
2014-5-10,82,66,59,68,62,59,100,89,52,29.99,29.84,11,1,18,0.33
2014-5-11,81,67,54,61,53,46,99,66,30,30.10,29.91,7,1,9,0.01
2014-5-12,84,67,50,66,57,48,97,72,43,30.14,30.03,4,0,7,0.00
2014-5-13,70,62,52,62,52,41,99,72,46,30.29,30.04,14,2,15,0.00
2014-5-14,75,59,50,63,53,42,96,81,66,30.33,30.22,8,1,11,0.00
2014-5-15,78,68,58,73,65,57,100,92,74,30.24,30.06,12,1,13,0.08
2014-5-16,69,66,56,67,64,55,98,94,88,30.05,29.79,8,1,19,1.16
2014-5-17,67,57,46,55,47,42,100,74,43,30.15,29.88,6,1,9,0.00
2014-5-18,65,54,41,48,42,37,98,68,39,30.23,30.15,7,1,11,0.00
2014-5-19,70,54,38,54,42,36,94,69,31,30.26,30.11,8,1,15,0.02
2014-5-20,78,61,41,55,46,40,99,66,27,30.19,30.01,7,1,10,0.02
2014-5-21,72,64,57,60,56,53,93,79,58,30.05,29.91,3,0,6,0.00
2014-5-22,72,63,59,67,62,58,99,94,80,29.91,29.76,4,0,9,0.12
2014-5-23,72,62,56,60,56,52,99,82,57,29.98,29.85,10,1,11,0.15
2014-5-24,73,60,54,59,55,50,98,83,57,30.12,29.96,6,1,12,0.03
2014-5-25,81,64,48,60,52,44,100,70,28,30.14,30.03,4,0,9,0.01
2014-5-26,86,69,51,60,55,49,97,67,34,30.10,29.92,5,1,8,0.00
2014-5-27,85,71,58,70,63,56,94,78,51,29.94,29.80,4,0,14,0.01
2014-5-28,65,60,54,65,58,50,99,91,84,30.17,29.81,7,1,11,0.00
2014-5-29,64,56,51,54,49,45,84,76,62,30.24,30.16,5,1,9,0.00
2014-5-30,77,64,53,57,52,47,91,68,42,30.18,30.00,6,1,11,0.00
2014-5-31,73,62,49,54,49,44,96,67,36,30.31,30.11,9,2,19,0.00
2014-6-1,78,62,46,57,51,45,98,68,36,30.39,30.25,6,0,8,0.00
2014-6-2,82,65,46,62,54,44,83,60,42,30.29,30.04,4,0,7,0.00
2014-6-3,88,71,56,73,65,55,84,71,45,30.06,29.83,8,0,9,0.37
2014-6-4,84,71,58,66,60,54,86,62,37,29.87,29.75,8,1,10,0.01
2014-6-5,77,65,58,63,58,53,84,68,40,29.84,29.67,7,1,10,0.63
2014-6-6,75,64,54,58,54,50,79,59,42,29.99,29.83,9,1,12,0.00
2014-6-7,82,66,49,62,55,48,85,61,35,30.04,29.93,7,1,12,0.00
2014-6-8,84,70,53,65,59,52,85,62,38,29.99,29.86,5,0,6,0.00
2014-6-9,70,65,61,68,63,58,84,80,61,29.97,29.90,4,0,7,1.16
2014-6-10,78,70,65,72,68,64,85,78,68,29.99,29.93,4,0,8,0.01
2014-6-11,69,64,60,68,62,58,84,80,71,30.12,29.99,6,1,11,0.02
2014-6-12,70,64,59,69,63,58,85,84,81,30.11,29.92,7,1,9,0.05
2014-6-13,83,70,66,75,68,66,97,88,72,29.92,29.72,4,0,11,0.97
2014-6-14,72,65,54,66,58,51,98,78,58,30.08,29.82,8,1,12,0.00
2014-6-15,80,66,50,62,56,49,95,71,45,30.17,30.06,7,0,12,0.00
2014-6-16,86,70,52,69,61,51,97,74,46,30.18,30.03,4,0,5,0.00
2014-6-17,91,77,63,75,69,62,96,75,48,30.09,29.90,3,0,7,0.00
2014-6-18,90,79,69,72,68,64,96,69,44,29.98,29.84,7,1,13,0.00
2014-6-19,75,69,62,70,66,61,97,89,79,30.03,29.93,6,0,10,0.10
2014-6-20,80,67,51,61,54,49,96,64,35,30.05,29.92,6,1,11,0.00
2014-6-21,79,68,52,63,55,49,89,63,45,29.99,29.88,4,0,8,0.00
2014-6-22,79,68,57,65,60,54,92,74,57,30.05,29.93,2,0,6,0.00
2014-6-23,81,70,58,68,62,56,95,74,57,30.16,30.05,0,0,5,0.00
2014-6-24,84,71,56,67,62,55,95,74,51,30.17,30.01,4,0,9,0.00
2014-6-25,87,74,62,75,69,60,95,82,59,30.03,29.83,4,0,9,0.41
2014-6-26,82,74,67,71,68,65,98,82,61,29.98,29.84,7,1,13,0.08
2014-6-27,84,72,63,70,66,60,97,79,53,30.23,29.98,6,0,7,0.00
2014-6-28,86,72,57,70,62,56,96,73,46,30.30,30.21,3,0,5,0.00
2014-6-29,84,73,61,68,64,59,94,72,52,30.28,30.11,3,0,5,0.00
2014-6-30,84,72,60,71,66,58,93,79,59,30.14,29.95,3,0,7,0.00
2014-7-1,91,78,66,76,71,65,96,79,55,29.98,29.82,6,0,9,0.00
2014-7-2,92,78,69,81,74,68,97,86,63,29.95,29.82,12,0,12,0.21
2014-7-3,87,76,69,79,73,68,98,89,71,30.00,29.87,8,0,20,0.31
2014-7-4,73,68,64,69,62,53,98,82,59,30.09,29.95,9,2,18,0.11
2014-7-5,81,69,56,61,55,51,90,63,39,30.20,30.09,5,0,12,0.00
2014-7-6,84,70,53,65,59,52,97,71,41,30.13,29.95,7,0,10,0.00
2014-7-7,89,77,65,72,68,63,94,72,52,29.95,29.75,4,1,10,0.20
2014-7-8,90,78,67,76,71,66,98,79,52,29.88,29.67,5,0,12,0.27
2014-7-9,87,74,63,71,67,62,98,78,53,29.98,29.80,10,0,13,0.01
2014-7-10,84,72,63,69,66,62,96,81,52,30.16,29.98,6,1,11,0.45
2014-7-11,85,73,62,69,65,62,97,77,49,30.23,30.14,4,0,7,0.00
2014-7-12,86,74,61,71,66,61,97,75,54,30.25,30.11,4,0,6,0.00
2014-7-13,86,75,66,77,70,65,96,84,67,30.14,29.88,0,0,6,0.56
2014-7-14,85,74,69,77,72,69,98,91,74,29.95,29.80,5,0,9,0.64
2014-7-15,84,75,71,77,73,71,98,93,74,29.84,29.73,0,0,0,0.14
2014-7-16,80,71,61,72,64,60,98,78,49,29.91,29.76,3,0,11,0.18
2014-7-17,80,68,58,65,60,56,97,74,48,30.13,29.91,0,0,0,0.00
2014-7-18,80,67,53,64,59,53,97,75,48,30.26,30.13,0,0,1,0.00
2014-7-19,78,69,61,65,61,59,93,76,52,30.26,30.18,3,0,7,0.00
2014-7-20,80,70,62,66,63,60,93,77,53,30.19,30.10,2,0,8,0.01
2014-7-21,84,71,59,71,64,58,97,79,48,30.22,30.15,0,0,0,0.00
2014-7-22,86,74,62,74,68,61,97,81,61,30.20,30.06,0,0,2,0.00
2014-7-23,90,76,64,78,71,64,96,82,63,30.06,29.78,0,0,1,0.10
2014-7-24,80,71,66,71,63,55,97,74,50,29.94,29.83,9,0,12,0.01
2014-7-25,82,69,55,63,58,52,91,68,43,30.06,29.94,3,0,7,0.00
2014-7-26,81,69,58,70,64,58,96,84,65,30.03,29.90,0,0,0,0.00
2014-7-27,87,75,66,73,70,65,98,83,55,29.92,29.66,0,0,1,0.31
2014-7-28,81,71,65,70,66,59,98,82,56,29.75,29.55,4,0,14,0.11
2014-7-29,74,65,56,60,57,54,93,74,50,30.00,29.76,0,0,0,0.00
2014-7-30,78,65,51,61,56,50,97,75,47,30.07,30.00,0,0,4,0.00
2014-7-31,82,68,55,67,61,54,96,78,50,30.16,30.07,3,0,6,0.00
2014-8-1,81,69,60,73,66,59,97,89,71,30.21,30.16,3,0,13,0.04
2014-8-2,76,69,64,68,65,63,97,86,70,30.20,30.10,0,0,0,0.05
2014-8-3,74,68,64,68,66,63,97,90,78,30.15,30.04,2,0,7,0.10
2014-8-4,83,73,65,69,67,64,97,81,56,30.09,30.03,0,0,1,0.00
2014-8-5,87,74,60,71,65,60,98,75,47,30.07,29.92,5,0,9,0.00
2014-8-6,82,71,62,68,63,60,92,76,52,29.94,29.86,5,0,11,0.00
2014-8-7,82,69,55,63,57,53,93,67,40,30.05,29.93,7,1,11,0.00
2014-8-8,81,66,52,64,57,51,96,75,46,30.14,30.05,5,0,10,0.00
2014-8-9,84,69,54,64,59,54,97,72,41,30.16,30.08,4,0,7,0.00
2014-8-10,88,71,56,66,60,55,97,70,36,30.17,30.08,3,0,6,0.00
2014-8-11,85,71,58,67,62,57,97,72,44,30.15,30.08,8,0,10,0.00
2014-8-12,75,70,64,72,67,62,95,89,81,30.09,29.84,5,0,10,0.16
2014-8-13,83,73,66,71,67,59,97,81,56,29.84,29.68,4,0,9,0.12
2014-8-14,77,67,56,60,56,53,92,69,47,29.92,29.82,6,0,8,0.00
2014-8-15,72,62,49,57,54,48,97,75,50,30.01,29.92,3,0,8,0.00
2014-8-16,78,64,49,60,54,48,97,73,41,30.04,29.93,3,0,8,0.00
2014-8-17,80,67,57,67,60,55,95,77,50,29.94,29.84,7,0,11,0.01
2014-8-18,80,66,51,63,58,51,97,75,48,29.96,29.83,4,0,9,0.00
2014-8-19,85,69,54,67,60,53,95,73,42,29.95,29.87,5,0,8,0.00
2014-8-20,84,73,64,69,65,62,94,75,56,30.04,29.94,1,0,5,0.00
2014-8-21,82,72,63,69,66,62,97,80,57,30.07,29.98,4,0,11,0.84
2014-8-22,74,68,64,68,65,62,97,88,77,30.07,30.00,1,0,4,0.49
2014-8-23,68,66,63,66,63,59,96,90,81,30.13,30.04,0,0,0,0.08
2014-8-24,80,68,57,66,61,56,98,79,51,30.18,30.11,0,0,0,0.00
2014-8-25,85,69,55,68,62,54,98,77,47,30.20,30.13,0,0,0,0.00
2014-8-26,87,72,59,70,64,58,98,78,49,30.19,30.07,0,0,0,0.00
2014-8-27,89,74,59,74,67,59,98,79,55,30.09,29.88,0,0,7,0.00
2014-8-28,77,70,57,70,58,51,84,64,48,30.09,29.88,7,1,18,0.00
2014-8-29,78,64,50,62,55,49,96,72,49,30.27,30.10,3,0,8,0.00
2014-8-30,75,66,52,67,61,51,97,83,70,30.29,30.16,0,0,1,0.00
2014-8-31,87,73,66,77,70,63,97,90,68,30.17,29.97,0,0,2,0.53
2014-9-1,88,76,69,77,73,69,98,87,64,30.03,29.92,0,0,6,0.01
2014-9-2,90,78,67,76,71,66,98,80,56,29.96,29.82,1,0,7,0.00
2014-9-3,80,72,62,69,65,61,94,77,55,30.14,29.86,0,0,0,0.00
2014-9-4,86,71,57,68,63,57,98,77,48,30.22,30.10,0,0,1,0.00
2014-9-5,85,73,62,76,70,62,97,89,70,30.19,30.03,0,0,1,0.00
2014-9-6,90,75,63,78,71,61,98,86,59,30.03,29.84,7,0,21,0.52
2014-9-7,78,66,57,62,59,53,96,77,46,30.21,29.97,6,1,11,0.00
2014-9-8,75,64,54,63,57,53,95,77,57,30.32,30.20,8,1,12,0.00
2014-9-9,73,65,58,63,59,54,88,80,66,30.29,30.16,8,1,13,0.00
2014-9-10,78,69,62,65,62,59,90,75,53,30.15,30.02,0,0,0,0.00
2014-9-11,80,70,63,74,67,60,97,89,75,30.03,29.84,6,0,11,0.02
2014-9-12,73,64,55,60,55,51,90,71,53,30.20,29.98,13,1,13,0.00
2014-9-13,64,58,50,62,56,48,96,90,80,30.20,30.11,10,0,14,0.24
2014-9-14,67,56,46,56,50,46,97,81,52,30.32,30.20,7,0,11,0.01
2014-9-15,69,55,42,54,48,42,97,79,48,30.28,30.10,3,0,5,0.01
2014-9-16,71,58,50,61,54,49,97,84,61,30.10,29.99,3,0,11,0.29
2014-9-17,70,57,46,54,49,45,97,77,47,30.09,29.98,5,0,7,0.01